Flag for Germany Weather past 2 weeks in Langen, Hesse, Germany

Now
72 °F

Partly sunny.


Feels Like: 75 °F
Forecast: 57 / 73 °F
Wind: 6 mph from Southeast

Location: Frankfurt-M-Flughafen Airport

Current Time: Sep 17, 2014 at 7:54:14 PM

Latest Report: Sep 17, 2014 at 7:20 PM


Visibility: N/A

Pressure: 29.86 "Hg

Humidity: 69%

Dew point: 61 °F

Location of LangenLocation

Historic Weather in Langen — Graph

°F

Langen temperature yesterday

Maximum temperature yesterday: 75 °F (at 3:20 PM)
Minimum temperature yesterday: 57 °F (at 5:20 AM)
Average temperature yesterday: 65 °F

Past Weeks' High & Low Weather Summary

 TemperatureHumidityPressure
High79 °F (Sep 6, 3:20 PM)100% (Sep 5, 3:20 AM)30.18 "Hg (Sep 5, 3:20 AM)
Low46 °F (Sep 11, 2:20 AM)46% (Sep 9, 5:50 PM)29.86 "Hg (Sep 6, 4:20 PM)
Average63 °F81%30.04 "Hg
* Reported Sep 2 6:20 PM — Sep 17 6:50 PM, Langen, Weather by CustomWeather, © 2014

Note: Actual official high and low records may vary slightly from our data, if they occured in-between our weather recording intervals... More about our weather records

Advertising

Langen weather history for previous 24 hours

 ConditionsComfort  
Time TempWeatherWind HumidityBarometerVisibility
6:50 PM
Sep 17
73 °FPartly sunny.7 mph61%29.86 "HgN/A
6:20 PM75 °FPartly sunny.8 mph57%29.86 "HgN/A
5:50 PM75 °FScattered clouds.9 mph57%29.86 "HgN/A
5:20 PM77 °FScattered clouds.8 mph54%29.86 "HgN/A
4:50 PM77 °FScattered clouds.10 mph54%29.86 "HgN/A
4:20 PM77 °FScattered clouds.9 mph54%29.89 "HgN/A
3:50 PM77 °FScattered clouds.7 mph47%29.89 "HgN/A
3:20 PM75 °FPassing clouds.7 mph54%29.89 "HgN/A
2:50 PM75 °FPassing clouds.7 mph57%29.89 "HgN/A
2:20 PM75 °FPassing clouds.7 mph61%29.92 "HgN/A
1:50 PM73 °FPassing clouds.8 mph65%29.92 "HgN/A
1:20 PM72 °FPassing clouds.7 mph69%29.92 "HgN/A
12:50 PM70 °FPassing clouds.7 mph73%29.92 "HgN/A
12:20 PM68 °FPassing clouds.7 mph78%29.92 "HgN/A
11:50 AM66 °FPassing clouds.9 mph83%29.92 "HgN/A
11:20 AM66 °FPassing clouds.7 mph83%29.95 "HgN/A
10:50 AM64 °FPassing clouds.9 mph88%29.95 "HgN/A
10:20 AM63 °FPassing clouds.10 mph88%29.95 "HgN/A
9:50 AM61 °FPassing clouds.10 mph94%29.95 "HgN/A
9:20 AM59 °FSunny.9 mph94%29.95 "Hg10 mi
8:50 AM59 °FSunny.10 mph94%29.95 "Hg10 mi
8:20 AM57 °FSunny.9 mph100%29.95 "Hg10 mi
7:50 AM57 °FClear.8 mph100%29.95 "Hg10 mi
7:20 AM55 °FClear.9 mph100%29.95 "Hg10 mi
6:50 AM55 °FClear.8 mph100%29.95 "Hg10 mi
6:20 AM57 °FPassing clouds.8 mph100%29.95 "HgN/A
5:50 AM55 °FClear.7 mph100%29.95 "Hg10 mi
5:20 AM55 °FClear.7 mph100%29.95 "Hg10 mi
4:50 AM57 °FClear.7 mph100%29.95 "Hg10 mi
4:20 AM57 °FClear.7 mph100%29.95 "Hg10 mi
3:50 AM57 °FPassing clouds.5 mph100%29.95 "HgN/A
3:20 AM57 °FPassing clouds.5 mph100%29.95 "HgN/A
2:50 AM57 °FClear.5 mph100%29.95 "Hg10 mi
2:20 AM57 °FClear.3 mph100%29.95 "Hg10 mi
1:50 AM59 °FClear.6 mph100%29.95 "Hg10 mi
1:20 AM59 °FClear.5 mph94%29.95 "Hg10 mi
12:20 AM59 °FClear.5 mph94%29.98 "Hg10 mi
11:50 PM
Sep 16
59 °FClear.5 mph94%29.98 "Hg10 mi
11:20 PM61 °FClear.5 mph88%29.98 "Hg10 mi
10:50 PM61 °FClear.7 mph94%29.95 "Hg10 mi
10:20 PM63 °FClear.8 mph88%29.95 "Hg10 mi
9:50 PM63 °FClear.7 mph88%29.95 "Hg10 mi
9:20 PM63 °FClear.6 mph88%29.98 "Hg10 mi
8:50 PM64 °FClear.5 mph83%29.98 "Hg10 mi
8:20 PM66 °FPassing clouds.5 mph78%29.95 "HgN/A
7:50 PM68 °FPassing clouds.7 mph73%29.95 "HgN/A
7:20 PM70 °FPassing clouds.5 mph69%29.95 "HgN/A
Weather by CustomWeather, © 2014

See weather overviewHow to use our weather pages